Temp
9 10 12 13 14 13 14 12 10 9 9 8 8 7 9 10 11 11 11 11 10 9 9 9 8 8 8 9 7 9 10 10 9 9 8 8 8 8 8 9 9 9 9 9
11 11 13 14 14 12 13 13 10 9 9 9 8 8 8 9 10 11 11 10 10 11 9 9 8 8 8 9 9 10 10 10 10 9 9 8 8 9 9 9 9 8 9 9
13 13 13 14 13 13 13 14 12 10 9 8 8 8 8 9 9 10 10 10 10 10 9 9 9 8 8 9 9 9 10 10 10 9 9 8 8 9 8 8 9 9 9 9
13 14 14 14 14 13 15 12 11 8 8 8 8 7 7 7 8 9 10 9 10 9 9 10 8 9 8 9 9 8 9 10 9 10 9 8 9 9 9 9 10 9 9 9
13 13 14 14 15 14 11 11 11 9 9 9 8 8 9 7 8 8 8 10 9 9 10 9 9 9 9 8 10 9 10 9 10 10 10 9 8 8 8 9 10 9 9 10
13 14 14 14 14 14 11 12 11 11 9 9 10 10 8 9 11 9 9 10 9 9 9 9 9 10 8 8 9 10 10 10 10 10 10 9 9 9 8 8 9 9 9 9
13 13 14 13 14 14 12 14 12 10 11 12 11 11 12 13 11 11 10 9 10 10 9 10 9 9 9 8 8 10 10 10 10 10 10 9 9 9 8 9 10 10 9 9
14 14 13 14 14 14 14 14 14 12 12 11 11 12 13 13 13 13 12 11 10 10 9 9 10 9 9 9 9 9 10 10 10 10 10 9 9 9 8 9 10 8 9 9
14 14 14 14 14 14 14 14 15 14 10 12 10 9 12 13 13 12 11 11 11 10 9 9 10 10 10 9 8 9 11 10 10 11 10 10 9 9 10 10 9 9 9 8
13 14 15 14 13 14 14 15 15 13 11 12 10 10 9 11 12 11 11 11 11 9 10 10 10 10 9 10 9 8 11 11 11 11 11 10 10 9 9 10 10 10 10 8
12 12 15 14 14 14 14 14 15 16 15 12 12 14 13 12 11 12 13 13 12 11 10 9 10 10 9 9 9 9 9 10 10 11 11 11 10 10 9 9 9 9 9 9
12 13 14 14 14 14 14 15 15 16 16 16 16 15 14 13 11 12 12 13 12 12 11 11 10 9 9 10 9 9 9 10 10 10 11 10 10 10 10 10 9 10 10 9
10 12 13 14 14 14 14 14 15 15 16 16 17 13 14 13 13 13 12 12 12 12 11 11 11 9 10 9 10 9 10 8 8 8 9 10 9 10 10 10 10 10 10 10
9 11 12 11 11 11 12 13 15 15 16 16 17 13 14 15 13 13 12 12 12 12 12 10 9 10 9 7 8 9 10 8 8 9 9 9 9 9 9 8 9 9 10 10
10 10 11 11 11 11 11 12 13 15 15 16 17 15 13 13 12 11 11 12 11 12 10 11 10 9 10 8 9 9 9 9 9 9 9 8 9 8 8 8 8 9 9 10
10 10 10 11 11 11 11 12 13 14 15 15 16 16 14 12 13 10 10 10 12 11 10 10 9 9 9 10 10 10 10 9 9 9 9 9 8 8 8 9 8 9 8 8
9 10 10 10 11 10 11 12 11 14 15 15 15 12 12 11 11 7 9 9 11 10 10 10 10 10 10 10 9 9 9 9 8 9 9 8 8 8 8 7 8 9 8 8
9 9 9 9 8 9 9 10 10 9 10 12 11 9 11 10 9 9 9 11 11 12 11 10 9 10 10 10 9 9 9 9 9 9 8 8 8 8 8 8 8 8 8 8
9 9 9 8 5 7 9 8 9 7 8 8 10 10 8 9 8 8 8 9 11 12 12 10 10 10 10 9 9 10 9 9 9 9 8 8 8 8 7 7 8 8 7 8
9 8 8 8 8 4 5 7 7 7 7 6 7 8 6 7 11 9 7 11 11 11 12 11 10 10 10 10 10 10 9 9 9 9 8 8 8 8 8 8 8 8 7 7
6 6 7 9 7 4 6 6 6 7 5 6 6 7 6 5 6 7 9 9 10 10 11 11 10 10 10 10 9 9 8 8 8 8 8 8 8 8 8 8 8 8 8 7
6 5 7 7 8 7 5 5 4 5 5 6 7 7 6 7 5 6 8 8 9 9 10 10 10 10 9 9 10 9 8 7 7 8 8 8 8 7 8 8 8 8 8 7
7 7 6 5 3 5 4 4 4 4 4 5 6 5 5 5 6 6 8 8 8 9 9 9 8 8 8 8 8 7 7 7 7 7 7 6 7 6 7 7 7 7 7 7
7 6 6 6 5 4 4 4 3 5 5 4 4 5 5 6 5 7 7 7 7 7 8 7 7 7 7 6 7 7 7 7 6 7 6 6 6 6 6 6 6 6 7 7
6 5 5 5 5 5 4 3 3 3 3 4 4 5 4 6 6 6 6 6 6 6 6 6 6 5 5 5 5 6 6 6 5 6 6 6 6 6 6 6 5 5 5 5
6 5 5 5 4 4 3 3 3 2 2 2 3 5 4 5 5 5 6 6 5 4 5 4 4 4 4 4 4 4 4 5 5 5 5 5 5 4 4 4 4 5 5 6
Height
3141 3145 3145 3148 3150 3151 3152 3152 3155 3157 3158 3160 3162 3163 3168 3176 3176 3185 3189 3192 3194 3197 3201 3204 3205 3203 3204 3206 3208 3209 3210 3213 3215 3216 3217 3219 3221 3221 3222 3226 3228 3229 3230 3230
3143 3142 3144 3147 3148 3147 3151 3152 3152 3157 3156 3161 3162 3160 3165 3170 3173 3180 3186 3189 3192 3196 3198 3203 3203 3203 3203 3205 3207 3209 3211 3214 3215 3217 3218 3219 3221 3222 3224 3227 3229 3232 3233 3232
3139 3141 3143 3145 3147 3149 3148 3150 3153 3156 3157 3158 3161 3161 3164 3167 3170 3175 3181 3186 3191 3191 3193 3201 3204 3204 3203 3205 3206 3209 3211 3213 3216 3215 3218 3219 3221 3223 3225 3228 3230 3231 3234 3234
3139 3139 3141 3143 3144 3148 3145 3148 3151 3155 3156 3158 3159 3161 3160 3162 3169 3173 3178 3184 3187 3191 3196 3199 3202 3205 3204 3204 3206 3209 3210 3212 3215 3217 3218 3221 3223 3225 3226 3228 3229 3232 3234 3235
3137 3138 3138 3141 3142 3143 3150 3147 3151 3154 3159 3158 3158 3158 3159 3163 3165 3165 3171 3180 3181 3187 3193 3195 3201 3203 3203 3204 3206 3209 3210 3211 3213 3216 3221 3224 3226 3227 3227 3228 3229 3231 3233 3235
3134 3136 3137 3139 3142 3145 3145 3147 3152 3153 3155 3154 3151 3153 3150 3145 3149 3162 3169 3174 3178 3185 3189 3193 3194 3203 3204 3205 3204 3208 3209 3211 3213 3216 3221 3223 3223 3227 3227 3229 3230 3230 3231 3234
3134 3134 3136 3139 3141 3142 3147 3145 3149 3154 3150 3146 3145 3148 3145 3144 3147 3157 3164 3170 3176 3181 3187 3192 3191 3196 3201 3200 3203 3205 3208 3210 3212 3216 3219 3222 3223 3226 3227 3228 3228 3229 3232 3235
3132 3133 3134 3136 3138 3140 3142 3143 3144 3146 3148 3148 3146 3146 3142 3142 3146 3154 3162 3169 3174 3181 3182 3188 3192 3195 3198 3200 3201 3202 3207 3208 3210 3214 3218 3221 3223 3225 3225 3227 3229 3228 3232 3237
3128 3128 3130 3133 3136 3139 3139 3140 3143 3144 3149 3150 3145 3145 3147 3143 3148 3152 3156 3162 3168 3172 3179 3181 3186 3191 3195 3197 3200 3200 3205 3205 3208 3212 3215 3219 3222 3224 3224 3225 3230 3232 3232 3232
3130 3127 3126 3131 3135 3136 3136 3139 3141 3142 3148 3150 3145 3143 3142 3149 3147 3153 3153 3155 3164 3168 3176 3181 3185 3189 3192 3196 3198 3199 3203 3204 3206 3208 3213 3216 3219 3221 3223 3226 3227 3231 3232 3228
3132 3129 3126 3129 3133 3134 3137 3137 3137 3136 3138 3143 3151 3143 3145 3150 3147 3150 3152 3156 3161 3167 3171 3176 3180 3183 3190 3195 3199 3199 3202 3203 3205 3206 3210 3214 3217 3219 3221 3223 3226 3230 3232 3233
3133 3128 3128 3128 3129 3131 3133 3135 3137 3135 3135 3135 3136 3138 3140 3142 3146 3151 3152 3154 3158 3163 3169 3173 3178 3175 3185 3192 3195 3197 3197 3200 3201 3205 3208 3211 3214 3217 3219 3221 3223 3226 3231 3232
3132 3130 3130 3127 3129 3130 3131 3133 3134 3134 3134 3131 3132 3137 3138 3141 3141 3146 3150 3154 3155 3159 3163 3169 3179 3171 3181 3187 3191 3192 3188 3194 3200 3197 3204 3208 3209 3214 3217 3219 3221 3223 3225 3228
3134 3132 3132 3135 3136 3136 3132 3130 3132 3132 3133 3131 3129 3131 3135 3136 3141 3145 3147 3150 3152 3156 3160 3168 3170 3177 3174 3170 3188 3192 3191 3192 3193 3200 3204 3207 3209 3212 3212 3217 3218 3220 3222 3224
3135 3134 3133 3133 3135 3134 3133 3132 3130 3130 3130 3131 3129 3132 3135 3137 3142 3146 3149 3147 3148 3153 3155 3161 3165 3170 3178 3174 3180 3186 3189 3192 3193 3197 3200 3203 3205 3208 3212 3215 3216 3217 3219 3220
3134 3134 3133 3132 3133 3133 3132 3133 3129 3127 3129 3130 3129 3131 3128 3130 3131 3142 3150 3151 3146 3151 3157 3157 3162 3166 3174 3176 3179 3182 3186 3188 3189 3194 3196 3196 3198 3200 3202 3206 3210 3210 3213 3214
3132 3130 3130 3129 3130 3130 3131 3132 3130 3127 3129 3130 3130 3126 3127 3130 3134 3133 3144 3150 3149 3153 3151 3153 3155 3159 3163 3167 3172 3175 3180 3181 3185 3188 3190 3191 3193 3193 3194 3196 3198 3195 3204 3208
3132 3131 3131 3132 3130 3135 3129 3127 3129 3132 3125 3124 3123 3125 3127 3128 3133 3135 3145 3147 3146 3150 3152 3154 3156 3157 3158 3160 3164 3168 3174 3178 3182 3184 3186 3188 3188 3187 3188 3190 3192 3195 3198 3201
3130 3129 3130 3130 3128 3127 3130 3129 3128 3125 3122 3125 3126 3128 3131 3130 3131 3138 3140 3143 3146 3147 3146 3150 3152 3155 3156 3160 3163 3166 3170 3174 3177 3178 3182 3185 3186 3185 3185 3186 3187 3189 3191 3194
3128 3128 3130 3129 3131 3133 3130 3131 3131 3129 3130 3127 3128 3127 3127 3130 3131 3137 3138 3139 3140 3143 3143 3145 3148 3152 3154 3158 3159 3163 3166 3169 3173 3175 3179 3182 3183 3184 3185 3186 3187 3189 3187 3188
3128 3127 3127 3126 3125 3129 3132 3129 3123 3129 3136 3131 3130 3130 3127 3128 3136 3131 3137 3136 3137 3140 3140 3142 3145 3148 3151 3154 3156 3157 3160 3162 3165 3169 3174 3178 3180 3181 3183 3184 3186 3187 3189 3190
3130 3128 3127 3125 3123 3126 3126 3126 3130 3134 3134 3132 3130 3126 3129 3126 3137 3135 3135 3137 3135 3135 3136 3140 3142 3144 3147 3150 3153 3153 3156 3158 3161 3165 3170 3174 3176 3177 3179 3182 3183 3185 3186 3186
3130 3130 3129 3127 3121 3127 3128 3130 3131 3132 3132 3131 3130 3128 3125 3123 3128 3133 3132 3132 3131 3131 3133 3135 3139 3141 3144 3146 3148 3151 3152 3155 3158 3161 3167 3170 3171 3174 3176 3178 3179 3182 3184 3185
3127 3127 3127 3129 3127 3126 3127 3128 3128 3128 3128 3131 3131 3131 3122 3125 3128 3129 3128 3128 3128 3128 3132 3134 3136 3138 3140 3142 3143 3146 3148 3151 3154 3158 3161 3163 3166 3169 3172 3171 3172 3179 3181 3182
3127 3127 3127 3127 3127 3124 3126 3125 3126 3127 3126 3126 3126 3126 3126 3126 3126 3126 3127 3128 3126 3127 3129 3132 3134 3136 3137 3139 3140 3141 3144 3147 3150 3152 3154 3156 3160 3163 3164 3167 3171 3173 3175 3177
3125 3125 3125 3126 3123 3123 3124 3122 3124 3126 3125 3124 3122 3121 3123 3121 3124 3124 3125 3124 3125 3127 3129 3130 3131 3133 3134 3136 3139 3138 3139 3141 3144 3146 3148 3152 3155 3155 3159 3161 3165 3167 3171 3172
Wind_Speed
16 17 21 19 18 15 14 6 8 10 14 9 21 1 29 36 34 29 26 26 25 23 18 18 21 18 14 15 19 14 12 13 12 12 11 11 10 6 7 7 9 8 10 6
12 20 18 19 16 3 12 8 12 8 7 9 9 20 37 41 32 28 28 28 29 25 28 21 20 15 12 17 17 14 14 13 14 12 10 12 9 11 10 7 7 6 8 7
20 14 18 20 17 13 18 8 6 8 15 11 5 4 28 36 38 37 32 27 26 22 28 21 21 16 14 14 17 12 15 16 13 14 12 15 12 8 5 5 7 5 6 7
17 13 16 19 18 19 12 2 3 9 16 3 10 4 6 34 39 36 35 26 32 29 21 19 25 18 15 11 18 18 17 17 16 16 12 10 10 8 7 7 7 7 5 7
16 15 12 19 19 13 8 7 3 13 6 12 13 7 6 29 45 32 26 35 21 22 27 27 20 21 26 16 13 19 18 16 15 15 15 11 10 11 6 7 6 5 4 6
16 11 12 13 15 13 7 9 6 6 17 7 16 7 14 23 38 38 36 46 33 36 25 24 25 17 23 19 13 15 18 18 16 14 13 14 13 10 10 5 3 6 8 8
15 12 9 13 15 15 11 12 6 4 10 4 17 13 12 11 25 39 35 36 34 30 28 29 30 24 21 26 18 13 17 17 17 16 17 17 14 10 9 7 8 7 4 7
15 16 16 15 19 14 13 14 8 3 3 1 6 3 7 16 15 24 28 34 32 27 33 36 27 32 25 23 27 16 18 19 18 18 17 17 15 13 12 11 8 5 3 6
10 19 11 18 17 14 14 14 17 8 3 9 2 15 12 15 20 18 34 41 38 37 40 29 29 26 23 20 20 25 19 19 18 16 17 16 16 15 14 8 8 11 11 12
6 14 19 14 13 17 16 9 15 7 3 5 7 9 6 18 19 22 22 33 35 37 33 22 31 27 22 21 28 23 19 20 19 17 15 14 16 14 13 10 9 11 12 12
9 11 6 13 15 16 18 18 13 18 13 5 8 4 6 10 18 23 21 25 31 38 34 27 31 27 23 22 27 31 18 16 19 16 15 14 14 15 15 14 11 13 13 9
10 9 11 14 13 17 19 20 21 18 16 19 21 7 4 2 7 18 22 21 22 29 32 38 25 26 32 24 30 23 30 17 14 11 11 9 13 15 14 15 15 14 13 13
6 8 13 15 12 12 16 21 20 22 21 23 13 7 10 4 7 11 15 23 22 21 31 40 38 23 28 35 30 30 23 28 22 12 6 13 17 10 11 12 15 16 16 15
8 9 12 7 12 10 14 13 22 21 22 22 20 15 16 15 20 17 23 19 21 27 26 36 38 42 40 45 31 27 21 25 19 16 18 19 16 19 18 17 16 15 17 18
7 12 12 9 11 13 19 18 15 24 21 25 16 4 14 17 14 15 18 21 22 21 33 33 41 38 39 26 27 25 26 26 27 23 20 21 23 25 27 26 23 19 16 19
9 13 15 17 11 12 17 20 20 23 24 22 22 14 12 15 18 16 15 21 24 28 31 28 30 35 43 43 35 33 25 30 32 26 16 26 32 35 32 31 32 29 24 21
10 14 9 16 8 8 13 11 16 14 15 15 18 6 7 15 11 18 11 22 24 23 25 26 26 24 31 38 36 36 32 25 15 19 26 18 21 17 22 33 37 39 29 28
14 11 10 15 17 11 3 9 6 9 12 2 3 10 8 6 10 18 9 16 16 14 21 26 22 19 16 18 27 31 30 28 24 28 22 21 24 24 20 23 27 33 25 31
10 10 13 3 16 19 7 8 7 13 14 18 7 10 2 11 16 13 13 14 12 13 14 23 25 23 22 22 22 24 26 27 28 27 24 17 12 8 9 7 17 26 31 34
10 5 11 9 8 1 9 10 4 7 4 13 11 12 3 8 13 12 13 14 10 12 14 20 24 25 25 25 26 28 27 27 27 24 21 20 13 10 9 5 5 12 19 13
11 10 14 19 4 2 8 2 14 16 9 8 9 10 8 8 12 15 15 12 7 14 14 14 15 15 16 18 21 21 22 26 24 23 23 19 19 16 13 10 7 10 9 8
6 7 11 9 5 1 10 3 4 5 12 10 7 9 4 10 14 16 15 10 12 13 13 13 13 13 14 16 19 23 25 21 26 28 26 25 23 19 18 15 10 11 12 13
3 5 8 5 5 2 5 8 5 3 3 6 10 16 13 4 9 9 13 12 11 12 15 16 15 15 16 18 18 20 24 23 29 30 28 26 22 21 23 18 18 16 16 16
5 6 8 6 3 5 4 2 3 5 8 3 3 4 7 12 11 13 10 9 10 11 15 15 16 14 14 17 18 19 23 29 27 34 34 34 29 29 24 22 24 22 19 17
6 6 3 7 11 9 6 5 3 6 10 11 12 12 14 13 12 11 11 10 7 12 14 14 15 14 14 14 15 19 26 28 29 32 29 34 31 33 31 28 21 19 19 18
6 10 9 6 8 9 9 14 12 3 5 7 9 14 9 15 10 11 12 13 12 13 13 14 16 18 16 16 17 20 21 23 24 24 25 28 28 21 20 18 17 18 20 21
Wind_Direction
207 210 216 212 223 223 257 281 205 180 187 216 215 342 183 172 173 182 181 179 195 172 183 165 180 204 220 185 161 172 162 150 152 149 129 136 153 155 108 130 118 119 136 141
207 217 216 218 231 305 244 195 176 217 199 199 248 293 182 178 177 176 179 185 193 203 171 170 176 218 238 175 165 167 158 169 158 137 152 140 174 160 162 146 135 141 138 150
215 227 220 227 238 245 256 203 251 210 188 170 188 327 176 190 184 177 172 196 200 199 164 176 177 192 229 201 169 171 160 170 176 168 171 163 146 166 164 155 163 162 157 166
224 224 218 225 228 220 252 240 46 172 169 213 152 142 215 191 191 191 181 194 186 185 186 197 173 198 221 241 192 187 165 167 169 172 194 174 173 183 172 199 163 170 185 180
225 225 226 220 229 225 133 96 112 191 175 175 190 133 158 192 189 202 196 185 192 195 198 198 194 184 206 202 242 181 182 175 179 175 173 175 182 185 173 207 161 157 194 177
225 226 227 223 227 219 158 153 139 189 228 225 195 186 201 189 206 201 192 187 195 203 192 216 174 207 194 218 240 208 188 190 185 181 171 180 183 196 182 194 199 191 196 188
227 235 218 220 221 211 216 213 183 198 201 232 185 200 245 210 207 201 195 197 193 181 195 216 190 216 218 212 202 243 187 199 193 187 182 188 198 178 198 210 204 189 189 193
210 215 219 216 219 205 226 234 213 289 327 56 203 237 209 180 135 177 206 201 188 198 211 205 212 211 220 192 186 250 197 199 200 197 194 194 199 193 197 211 229 162 96 280
300 232 214 207 214 222 226 221 236 202 60 279 346 316 184 158 187 193 209 206 209 210 198 190 221 219 203 185 195 245 214 205 206 204 201 198 201 204 215 215 203 213 209 224
259 302 210 212 214 232 240 249 225 198 156 300 217 206 354 188 187 209 201 207 202 204 203 192 218 220 218 208 196 227 233 209 211 206 205 208 212 211 203 217 236 211 225 232
271 292 187 187 214 229 226 241 251 254 207 141 281 174 225 211 199 202 209 201 201 201 202 205 219 215 197 194 224 229 227 222 210 209 205 210 217 223 226 231 238 229 226 215
240 271 267 246 231 234 233 230 239 256 254 248 241 274 189 265 251 210 225 215 205 208 203 196 206 216 205 205 204 219 230 224 201 198 197 202 224 228 231 239 242 249 231 229
321 251 264 255 240 238 229 235 240 244 260 276 295 149 117 108 170 199 200 213 215 205 209 199 193 217 204 195 227 216 250 211 205 222 226 236 217 246 239 239 246 248 247 243
269 265 280 351 286 281 299 298 239 247 245 255 256 158 180 177 203 182 180 202 215 210 204 191 208 212 222 232 222 211 227 235 223 235 251 257 268 271 237 263 255 252 248 244
235 255 272 280 284 270 272 293 285 240 246 245 255 159 191 182 187 188 187 181 200 210 209 212 219 218 230 198 212 212 226 237 242 239 246 250 271 264 253 251 253 259 250 245
238 257 268 275 276 260 268 258 282 236 238 244 256 275 255 216 204 174 200 175 202 202 210 214 218 228 225 228 234 221 224 242 250 264 250 254 263 262 255 240 251 246 248 250
257 286 288 287 290 289 258 264 271 271 236 239 264 237 221 209 247 270 200 197 205 210 207 208 218 222 226 232 232 232 242 245 249 235 246 267 266 268 270 256 246 232 242 247
249 273 279 275 286 253 336 257 334 249 325 24 47 33 254 265 147 155 224 222 191 206 214 225 222 223 224 226 226 229 235 245 249 257 260 265 277 267 259 252 250 250 245 253
268 267 265 301 302 278 292 260 291 356 332 330 248 314 355 208 164 166 188 211 224 218 212 208 218 224 227 228 227 229 229 232 235 254 249 251 253 232 215 226 229 233 243 248
279 282 268 275 295 298 297 263 255 337 68 12 335 283 199 193 203 198 222 234 230 221 212 205 213 221 226 238 243 243 243 241 237 239 227 225 224 205 199 222 252 238 256 255
301 297 270 272 202 223 267 269 235 242 312 329 346 312 297 311 272 231 234 263 244 222 217 221 227 236 239 237 240 245 241 239 231 217 216 223 233 228 229 236 216 207 223 250
357 291 311 295 299 183 360 291 21 267 278 292 267 313 225 224 225 233 238 244 231 222 226 230 233 240 249 250 253 240 236 235 220 214 219 229 236 239 241 242 235 233 228 217
262 263 329 331 216 180 95 97 119 173 325 322 268 302 313 53 332 275 253 233 225 221 227 225 227 233 244 249 244 232 232 226 220 221 228 233 251 249 255 235 235 227 225 226
278 263 283 302 128 141 111 63 316 283 291 309 255 287 282 312 266 273 288 266 257 226 219 227 235 243 243 235 231 226 234 240 244 237 239 242 249 248 232 224 220 223 241 242
288 301 283 267 273 257 273 219 244 315 295 286 285 270 268 276 277 272 261 269 255 231 233 235 244 240 236 233 236 236 238 246 245 238 237 225 239 223 219 222 225 224 224 227
267 260 255 260 242 245 244 266 285 294 290 310 292 272 275 273 259 260 252 254 241 238 243 251 246 243 248 253 246 225 222 221 223 222 220 226 219 220 221 219 223 226 235 237